This demonstration page uses our WeatherBlox Daily Observations layout. Learn more.

Left ArrowRight Arrow

39.92423, -83.80882

Hourly Observations for July 17, 2021

Temp ( °F °C ) Dew Point ( °F °C ) Humidity (%) Winds ( mph kmh ) Pressure ( in mb ) Visibility ( mi km ) Precip ( " mm )
12:30 am 00:30 Cloudy 70 21 N/A N/A N N/A 29.98 1015 10 16 0.00 0.00
12:41 am 00:41 Cloudy with Light Rain 70 21 N/A N/A N N/A 29.98 1015 10 16 0.01 0.25
12:56 am 00:56 Cloudy with Nearby Thunderstorms 70 21 N/A N/A SW 7 11 30.00 1016 6 10 0.07 1.78
1:27 am 01:27 Cloudy with Light Rain 70 21 N/A N/A SSW 3 6 29.97 1015 9 14 0.12 3.05
1:56 am 01:56 Mostly Cloudy with Rain 70 21 N/A N/A S 6 9 29.99 1016 10 16 0.16 4.06
2:56 am 02:56 Cloudy with Light Rain 68 20 N/A N/A SSE 6 9 29.97 1015 10 16 0.09 2.29
3:14 am 03:14 Cloudy with Light Rain 68 20 N/A N/A S 3 6 29.96 1015 10 16 0.01 0.25
3:32 am 03:32 Cloudy with Light Rain 70 21 N/A N/A S 7 11 29.95 1014 10 16 0.01 0.25
3:39 am 03:39 Cloudy with Light Rain 70 21 N/A N/A VRB 6 9 29.95 1014 10 16 0.01 0.25
3:56 am 03:56 Cloudy 68 20 N/A N/A S 5 7 29.97 1015 10 16 0.01 0.25
4:37 am 04:37 Cloudy with Light Rain 68 20 N/A N/A SSW 6 9 29.96 1015 10 16 0.01 0.25
4:56 am 04:56 Cloudy with Light Rain 68 20 N/A N/A SSW 6 9 29.98 1015 10 16 0.02 0.51
5:56 am 05:56 Cloudy with Light Rain 70 21 N/A N/A SW 7 11 29.96 1015 10 16 0.02 0.51
6:28 am 06:28 Cloudy 70 21 N/A N/A SW 9 15 29.96 1014 10 16 0.00 0.00
6:37 am 06:37 Cloudy 70 21 N/A N/A SW 8 13 29.96 1014 10 16 0.00 0.00
6:45 am 06:45 Cloudy 70 21 N/A N/A undefined N/A 29.97 1015 10 16 0.00 0.00
6:56 am 06:56 Cloudy 70 21 N/A N/A SW 10 17 29.98 1015 10 16 0.00 0.00
7:56 am 07:56 Cloudy with Light Rain 70 21 N/A N/A WSW 8 13 29.99 1016 10 16 0.00 0.00
8:56 am 08:56 Cloudy 70 21 N/A N/A WSW 13 20 30.01 1016 10 16 0.01 0.25
9:37 am 09:37 Cloudy 72 22 N/A N/A W 10 17 29.99 1016 9 14 N/A
9:56 am 09:56 Cloudy 72 22 N/A N/A W 13 20 30.02 1017 10 16 N/A
10:05 am 10:05 Cloudy 72 22 72 22 100 100 W 14 22 30.00 1016 10 16 N/A
10:56 am 10:56 Cloudy 73 22.8 73 22.8 100 100 WNW 14 22 30.03 1017 10 16 N/A
11:56 am 11:56 Cloudy 73 22.8 73 22.8 100 100 WNW 14 22 30.04 1017 10 16 N/A
12:45 pm 12:45 Mostly Cloudy 75 24 73 23 94 94 NW 12 19 30.02 1016 10 16 N/A
12:56 pm 12:56 Cloudy 76 24.4 72 22.2 88 88 NNW 13 20 30.04 1017 10 16 N/A
1:24 pm 13:24 Cloudy 75 24 72 22 89 89 N 10 17 30.02 1016 10 16 N/A
1:35 pm 13:35 Cloudy 77 25 72 22 83 83 NNW 10 17 30.01 1016 10 16 N/A
1:56 pm 13:56 Cloudy with Light Rain 74 23.3 73 22.8 97 97 N 12 19 30.05 1018 5 8 0.00 0.00
2:05 pm 14:05 Mostly Cloudy 75 24 75 24 100 100 NNW 9 15 30.03 1017 10 16 0.00 0.00
2:35 pm 14:35 Mostly Cloudy 79 26 72 22 79 79 N 8 13 30.02 1017 10 16 0.00 0.00
2:56 pm 14:56 Cloudy 78 25.6 74 23.3 87 87 NW 9 15 30.05 1018 10 16 0.00 0.00
3:07 pm 15:07 Cloudy 77 25 72 22 83 83 N 10 17 30.02 1017 9 14 N/A
3:34 pm 15:34 Mostly Sunny 81 27 70 21 70 70 N 12 19 30.02 1016 10 16 N/A
3:56 pm 15:56 Mostly Sunny 81 27.2 69 20.6 67 67 NNW 9 15 30.06 1018 10 16 N/A
4:56 pm 16:56 Mostly Sunny 81 27.2 69 20.6 67 67 NNW 10 17 30.06 1018 10 16 N/A
5:56 pm 17:56 Mostly Sunny 80 26.7 69 20.6 69 69 N 12 19 30.07 1018 10 16 N/A
6:56 pm 18:56 Sunny 77 25 69 20.6 77 77 NE 13 20 30.08 1019 10 16 N/A
7:56 pm 19:56 Sunny 75 23.9 67 19.4 76 76 ENE 9 15 30.09 1019 10 16 N/A
8:56 pm 20:56 Sunny 70 21.1 69 20.6 97 97 ENE 7 11 30.11 1020 10 16 N/A
9:56 pm 21:56 Clear 68 20 N/A N/A E 5 7 30.12 1020 10 16 N/A
10:56 pm 22:56 Clear 66 19 N/A N/A E 5 7 30.14 1021 10 16 N/A
11:56 pm 23:56 Clear 64 18 N/A N/A E 5 7 30.16 1021 10 16 N/A

Powered by AerisWeather